Zurück zum Katalog

USA 498

AktivMilitärLEO
NORAD 63350·PAYLOAD·🇺🇸 United States

Gestartet Mar 24, 2025 von Cape Canaveral Space Force Station

Loading…

Nächste Überflüge (nächste 24 Stunden)

TLE

VeraltetSource: Mike McCants

Epoche: Aug 11, 2026, 21:20 UTC

1 63350U 25060A   26223.88940501 0.00000000  00000-0  00000-0 0    03
2 63350  63.4342 149.9187 0089000 177.0783 182.9217 13.41001349    06

Verfolge USA 498 in Echtzeit mit AllMySat

Download on the App Store